Hourly Weather Allo

Today, 5 December, Saturday

Time Temperature Precipitation Wind Pressure Humidity
00:00 +2°C° 0 mm 1 mps 702 mmHg 79%
01:00 +2°C° 0 mm 1 mps 702 mmHg 80%
02:00 +2°C° 0 mm 1 mps 702 mmHg 81%
03:00 +2°C° 0 mm 1 mps 703 mmHg 82%
04:00 +1°C° 0 mm 1 mps 703 mmHg 82%
05:00 +1°C° 0 mm 1 mps 703 mmHg 82%
06:00 +1°C° 0 mm 1 mps 704 mmHg 83%
07:00 +2°C° 0 mm 1 mps 704 mmHg 78%
08:00 +2°C° 0 mm 2 mps 704 mmHg 74%
09:00 +2°C° 0 mm 2 mps 705 mmHg 69%
10:00 +3°C° 0.2 mm 2 mps 705 mmHg 69%
11:00 +3°C° 0.2 mm 3 mps 705 mmHg 69%
12:00 +3°C° 0.2 mm 3 mps 705 mmHg 69%
13:00 +4°C° 0.5 mm 4 mps 705 mmHg 72%
14:00 +4°C° 0.5 mm 4 mps 705 mmHg 76%
15:00 +3°C° 0.5 mm 5 mps 705 mmHg 80%
16:00 +4°C° 0.4 mm 4 mps 705 mmHg 82%
17:00 +3°C° 0.4 mm 4 mps 705 mmHg 85%
18:00 +3°C° 0.4 mm 4 mps 706 mmHg 87%
19:00 +3°C° 0.1 mm 4 mps 706 mmHg 88%
20:00 +3°C° 0.1 mm 4 mps 707 mmHg 88%
21:00 +1°C° 0.1 mm 5 mps 707 mmHg 89%
22:00 +1°C° 0 mm 5 mps 708 mmHg 87%
23:00 +1°C° 0 mm 4 mps 708 mmHg 85%

Tomorrow, 6 December, Sunday

Time Temperature Precipitation Wind Pressure Humidity
00:00 +1°C° 0 mm 4 mps 708 mmHg 83%
01:00 +1°C° 0 mm 4 mps 708 mmHg 83%
02:00 +1°C° 0 mm 3 mps 708 mmHg 83%
03:00 +1°C° 0 mm 3 mps 708 mmHg 83%
04:00 +1°C° 0.4 mm 3 mps 708 mmHg 83%
05:00 +1°C° 0.4 mm 3 mps 708 mmHg 83%
06:00 0°C° 0.4 mm 4 mps 708 mmHg 83%
07:00 0°C° 0.5 mm 4 mps 708 mmHg 85%
08:00 0°C° 0.5 mm 5 mps 709 mmHg 87%
09:00 0°C° 0.5 mm 5 mps 709 mmHg 89%
10:00 +1°C° 0.3 mm 5 mps 709 mmHg 89%
11:00 +1°C° 0.3 mm 5 mps 709 mmHg 88%
12:00 +2°C° 0.3 mm 5 mps 710 mmHg 87%
13:00 +2°C° 0.9 mm 5 mps 709 mmHg 87%
14:00 +2°C° 0.9 mm 6 mps 709 mmHg 87%
15:00 +2°C° 0.9 mm 6 mps 709 mmHg 87%
16:00 +2°C° 0.8 mm 5 mps 709 mmHg 87%
17:00 +1°C° 0.8 mm 5 mps 710 mmHg 87%
18:00 +1°C° 0.8 mm 4 mps 710 mmHg 86%
19:00 +1°C° 0.4 mm 4 mps 710 mmHg 88%
20:00 +1°C° 0.4 mm 4 mps 710 mmHg 90%
21:00 +1°C° 0.4 mm 4 mps 710 mmHg 92%
22:00 +1°C° 0.2 mm 4 mps 710 mmHg 93%
23:00 +1°C° 0.2 mm 4 mps 710 mmHg 93%

Day after tomorrow, 7 December, Monday

Time Temperature Precipitation Wind Pressure Humidity
00:00 +2°C° 0.2 mm 3 mps 711 mmHg 93%
01:00 +2°C° 0.4 mm 3 mps 710 mmHg 93%
02:00 +2°C° 0.4 mm 3 mps 710 mmHg 94%
03:00 +3°C° 0.4 mm 2 mps 710 mmHg 94%
04:00 +3°C° 0.4 mm 2 mps 709 mmHg 94%
05:00 +4°C° 0.4 mm 1 mps 709 mmHg 94%
06:00 +3°C° 0.4 mm 0 mps 708 mmHg 94%
07:00 +4°C° 1 mm 1 mps 708 mmHg 94%
08:00 +4°C° 1 mm 1 mps 707 mmHg 94%
09:00 +4°C° 1 mm 1 mps 707 mmHg 95%
10:00 +5°C° 0.9 mm 1 mps 707 mmHg 94%
11:00 +4°C° 0.9 mm 2 mps 706 mmHg 94%
12:00 +5°C° 0.9 mm 2 mps 706 mmHg 93%
13:00 +4°C° 0.7 mm 4 mps 706 mmHg 91%
14:00 +5°C° 0.7 mm 5 mps 707 mmHg 89%
15:00 +4°C° 0.7 mm 7 mps 707 mmHg 86%
16:00 +4°C° 0.3 mm 6 mps 707 mmHg 87%
17:00 +3°C° 0.3 mm 6 mps 707 mmHg 88%
18:00 +3°C° 0.3 mm 6 mps 707 mmHg 89%
19:00 +3°C° 0.2 mm 6 mps 708 mmHg 88%
20:00 +2°C° 0.2 mm 5 mps 708 mmHg 88%
21:00 +2°C° 0.2 mm 5 mps 708 mmHg 87%
22:00 +2°C° 0.1 mm 5 mps 708 mmHg 86%
23:00 +2°C° 0.1 mm 6 mps 708 mmHg 85%

8 December, Tuesday

Time Temperature Precipitation Wind Pressure Humidity
00:00 +2°C° 0.1 mm 6 mps 708 mmHg 84%
01:00 +2°C° 0.2 mm 5 mps 708 mmHg 85%
02:00 +2°C° 0.2 mm 5 mps 708 mmHg 85%
03:00 +3°C° 0.2 mm 4 mps 708 mmHg 86%
04:00 +2°C° 1.4 mm 5 mps 708 mmHg 88%
05:00 +1°C° 1.4 mm 5 mps 708 mmHg 89%
06:00 +1°C° 1.4 mm 5 mps 709 mmHg 91%
07:00 +1°C° 0.9 mm 5 mps 709 mmHg 91%
08:00 +2°C° 0.9 mm 5 mps 710 mmHg 90%
09:00 +2°C° 0.9 mm 5 mps 710 mmHg 89%
10:00 +2°C° 0.7 mm 5 mps 710 mmHg 89%
11:00 +2°C° 0.7 mm 5 mps 710 mmHg 89%
12:00 +2°C° 0.7 mm 5 mps 711 mmHg 90%
13:00 +2°C° 0.4 mm 5 mps 711 mmHg 89%
14:00 +2°C° 0.4 mm 5 mps 711 mmHg 87%
15:00 +3°C° 0.4 mm 6 mps 711 mmHg 86%
16:00 +2°C° 0.5 mm 5 mps 711 mmHg 87%
17:00 +2°C° 0.5 mm 5 mps 711 mmHg 87%
18:00 +3°C° 0.5 mm 4 mps 712 mmHg 88%
19:00 +1°C° 0.1 mm 4 mps 712 mmHg 89%
20:00 +1°C° 0.1 mm 4 mps 712 mmHg 91%
21:00 +1°C° 0.1 mm 4 mps 713 mmHg 92%
22:00 +1°C° 0.7 mm 4 mps 713 mmHg 93%
23:00 +1°C° 0.7 mm 4 mps 713 mmHg 93%

9 December, Wednesday

Time Temperature Precipitation Wind Pressure Humidity
00:00 +1°C° 0.7 mm 4 mps 713 mmHg 93%
01:00 +1°C° 1 mm 4 mps 714 mmHg 94%
02:00 +1°C° 1 mm 4 mps 714 mmHg 94%
03:00 +1°C° 1 mm 4 mps 714 mmHg 94%
04:00 +1°C° 0.1 mm 4 mps 715 mmHg 93%
05:00 +1°C° 0.1 mm 4 mps 715 mmHg 93%
06:00 +1°C° 0.1 mm 4 mps 715 mmHg 92%
07:00 +1°C° 0.1 mm 4 mps 716 mmHg 91%
08:00 +1°C° 0.1 mm 4 mps 716 mmHg 90%
09:00 +2°C° 0.1 mm 5 mps 716 mmHg 89%
10:00 +3°C° 0.1 mm 5 mps 716 mmHg 85%
11:00 +3°C° 0.1 mm 5 mps 716 mmHg 80%
12:00 +4°C° 0.1 mm 6 mps 716 mmHg 76%
13:00 +5°C° 0 mm 5 mps 716 mmHg 76%
14:00 +5°C° 0 mm 4 mps 716 mmHg 76%
15:00 +5°C° 0 mm 3 mps 715 mmHg 76%
16:00 +5°C° 0 mm 2 mps 715 mmHg 78%
17:00 +4°C° 0 mm 2 mps 715 mmHg 81%
18:00 +5°C° 0 mm 1 mps 715 mmHg 83%
19:00 +5°C° 0.1 mm 1 mps 715 mmHg 84%
20:00 +5°C° 0.1 mm 1 mps 715 mmHg 85%
21:00 +5°C° 0.1 mm 1 mps 714 mmHg 86%
22:00 +5°C° 0.5 mm 1 mps 714 mmHg 87%
23:00 +5°C° 0.5 mm 1 mps 713 mmHg 89%

10 December, Thursday

Time Temperature Precipitation Wind Pressure Humidity
00:00 +5°C° 0.5 mm 1 mps 713 mmHg 90%
01:00 +5°C° 0.3 mm 1 mps 712 mmHg 91%
02:00 +5°C° 0.3 mm 2 mps 712 mmHg 91%
03:00 +5°C° 0.3 mm 2 mps 711 mmHg 92%
04:00 +5°C° 0.6 mm 2 mps 711 mmHg 93%
05:00 +6°C° 0.6 mm 2 mps 711 mmHg 94%
06:00 +6°C° 0.6 mm 2 mps 711 mmHg 94%
07:00 +7°C° 1 mm 2 mps 711 mmHg 94%
08:00 +7°C° 1 mm 2 mps 710 mmHg 94%
09:00 +8°C° 1 mm 2 mps 710 mmHg 94%
10:00 +9°C° 0.2 mm 3 mps 710 mmHg 88%
11:00 +11°C° 0.2 mm 4 mps 710 mmHg 82%
12:00 +12°C° 0.2 mm 5 mps 711 mmHg 76%
13:00 +12°C° 0.5 mm 4 mps 710 mmHg 80%
14:00 +11°C° 0.5 mm 3 mps 709 mmHg 85%
15:00 +10°C° 0.5 mm 2 mps 709 mmHg 89%
16:00 +10°C° 0.6 mm 2 mps 708 mmHg 90%
17:00 +10°C° 0.6 mm 2 mps 708 mmHg 91%
18:00 +11°C° 0.6 mm 1 mps 708 mmHg 92%
19:00 +10°C° 0.7 mm 2 mps 708 mmHg 92%
20:00 +10°C° 0.7 mm 2 mps 708 mmHg 93%
21:00 +11°C° 0.7 mm 3 mps 708 mmHg 93%
22:00 +11°C° 0.7 mm 3 mps 708 mmHg 92%
23:00 +11°C° 0.7 mm 3 mps 708 mmHg 91%
Show more